Meriden, CT

9:34 PM EST on December 08, 2019 (GMT -0500)
Meriden Markham Municipal

Weather History for KMMK - July, 2019

Change the Weather History Date:

Tuesday, July 16, 2019

  Actual Average (WUND) Record (WUND)
Temperature  
Mean Temperature 74 °F -  
Max Temperature 91 °F - - (-1)
Min Temperature 57 °F - - (-1)
Cooling Degree Days 9    
Growing Degree Days 24 (Base 50)    
Moisture  
Dew Point 61 °F    
Average Humidity 61    
Maximum Humidity 93    
Minimum Humidity 36    
Precipitation  
Precipitation 0.00 in - - ()
Sea Level Pressure  
Sea Level Pressure 30.03 in    
Wind  
Wind Speed 3 mph (SSW)    
Max Wind Speed 12 mph    
Max Gust Speed -    
Visibility 10 miles    
Events      
Averages and records for this station are not official NWS values.
T = Trace of Precipitation, MM = Missing Value Source: NWS Daily Summary

Daily Weather History Graph

Daily Weather History Graph

Search for Another Location

Airport or City:

Astronomy

Jul. 16, 2019 Rise Set
Actual Time 5:31 AM EDT 8:23 PM EDT
Civil Twilight 4:58 AM EDT 8:55 PM EDT
Nautical Twilight 4:16 AM EDT 9:37 PM EDT
Astronomical Twilight 3:28 AM EDT 10:25 PM EDT
Moon 8:27 PM EDT (7/16) 5:06 AM EDT (7/16)
Length of Visible Light 15h 57m
Length of Day
14h 51m
Full, 100% of the Moon is Illuminated
Jul 16
Full
Jul 16
Full
Jul 24
Last Quarter
Jul 31
New
Aug 7
First Quarter

Hourly Weather History & Observations

Time (EDT) Temp. Heat Index Dew Point Humidity Pressure Visibility Wind Dir Wind Speed Gust Speed Precip Events Conditions
12:53 AM 63.0 °F - 57.9 °F 84% 30.06 in 10.0 mi Calm Calm - N/A   Clear
1:53 AM 62.1 °F - 57.9 °F 86% 30.06 in 10.0 mi Calm Calm - N/A   Clear
2:53 AM 61.0 °F - 57.9 °F 90% 30.05 in 10.0 mi Calm Calm - N/A   Clear
3:53 AM 62.1 °F - 59.0 °F 90% 30.05 in 10.0 mi Calm Calm - N/A   Clear
4:53 AM 60.1 °F - 57.0 °F 90% 30.06 in 10.0 mi Calm Calm - N/A   Clear
5:53 AM 57.9 °F - 55.9 °F 93% 30.06 in 10.0 mi South 3.5 mph - N/A   Clear
6:53 AM 64.0 °F - 59.0 °F 84% 30.08 in 10.0 mi Calm Calm - N/A   Clear
7:53 AM 72.0 °F - 60.1 °F 66% 30.09 in 10.0 mi Calm Calm - N/A   Clear
8:53 AM 77.0 °F - 60.1 °F 56% 30.08 in 10.0 mi Calm Calm - N/A   Clear
9:53 AM 82.9 °F 83.2 °F 60.1 °F 46% 30.08 in 10.0 mi Variable 3.5 mph - N/A   Clear
10:53 AM 84.9 °F 84.2 °F 57.9 °F 40% 30.06 in 10.0 mi Variable 4.6 mph - N/A   Clear
11:53 AM 87.1 °F 86.5 °F 59.0 °F 39% 30.04 in 10.0 mi Variable 6.9 mph - N/A   Clear
12:53 PM 87.1 °F 86.5 °F 59.0 °F 39% 30.04 in 10.0 mi SSW 8.1 mph - N/A   Clear
1:53 PM 89.1 °F 88.8 °F 60.1 °F 38% 30.03 in 10.0 mi SW 9.2 mph - N/A   Clear
2:53 PM 90.0 °F 90.0 °F 61.0 °F 38% 30.01 in 10.0 mi Variable 6.9 mph - N/A   Clear
3:53 PM 91.0 °F 90.9 °F 61.0 °F 36% 29.99 in 10.0 mi SSW 6.9 mph - N/A   Clear
4:53 PM 91.0 °F 92.6 °F 64.0 °F 41% 29.98 in 10.0 mi Variable 6.9 mph - N/A   Clear
5:53 PM 91.0 °F 93.0 °F 64.9 °F 42% 29.97 in 10.0 mi WSW 5.8 mph - N/A   Clear
6:53 PM 86.0 °F 87.3 °F 64.0 °F 48% 29.98 in 10.0 mi South 10.4 mph - N/A   Clear
7:53 PM 82.9 °F 85.0 °F 66.0 °F 56% 29.98 in 10.0 mi South 11.5 mph - N/A   Clear
8:53 PM 81.0 °F 82.7 °F 64.9 °F 58% 29.99 in 10.0 mi South 5.8 mph - N/A   Clear
9:53 PM 79.0 °F - 64.9 °F 62% 30.00 in 10.0 mi South 4.6 mph - N/A   Clear
10:53 PM 78.1 °F - 66.0 °F 66% 29.99 in 10.0 mi South 6.9 mph - N/A   Clear
11:53 PM 75.9 °F - 66.9 °F 74% 29.99 in 10.0 mi South 4.6 mph - N/A   Clear